Main page
METAR-TAF:

METAR-TAF

Airports :

Midland Airpark

Midland, Texas, United States

latitude: 32-02-11N, longitude: 102-06-03W, elevation: 2801 ft

Current weather observation

The report was made 28 minutes ago, at 14:55 UTC
Calm wind
Temperature 55°F
Humidity 82%
Pressure 30.20 in. Hg
Visibility: 10 miles

METAR: KMDD 221455Z AUTO 00000KT 10SM 13/10 A3020 RMK AO2 T01310101

Time: 10:23 (15:23 UTC)


TAF: missing

Weather observations and forecasts of more than 4000 airports (METAR and TAF reports).

The available stations are represented by yellow and red dots on the map.

Hover mouse over dot to see the name of the station.

Then click to see weather observations and forecasts.

To change the map : click on the green buttons with a black cross to zoom in, on the green button with a dash to zoom out, or on the green arrows for adjacent maps.


METAR-TAF: